星链-1877 (STARLINK-1877 )

导读 | 星芒AI

STARLINK-1877 是 SpaceX Starlink 项目中的一颗低轨通信卫星,属于第 18 批部署的星链卫星群。该卫星于 2021 年 10 月发射,运行在约 550 公里的轨道高度,旨在为全球提供高速互联网服务。Starlink 卫星采用先进推进系统和激光通信技术,支持高带宽、低延迟的网络连接。STARLINK-1877 的运行有助于扩大 Starlink 在全球范围内的覆盖,特别是在偏远和网络基础设施薄弱的地区。

基本信息
目录编号:
47162
目录名称:
STARLINK-1877
国际标识:
2020-088AS
轨道中心:
EARTH
卫星名称:
星链-1877
卫星全名:
星链-1877 (STARLINK-1877 )
卫星状态:
已陨落 最后检测时间 2025-06-21
发射日期:
2020-11-25 UTC
国别 :
美国 (US)
星等 :
--
轨道信息
数据来源 国际轨道数据
星历时间: 2025-06-21T17:10:08+0800
轨道信息已过期178天
半长轴: 6523.183km
偏心率: 0.0011355
轨道倾角: 53.017°
近地点辐角 304.460°
升交点赤经 314.668°
平近点角 141.901°
近地点: 137.64km
远地点: 152.456km
周期: 87.387分钟
每日圈数: 16.478339
详细信息
固有亮度:
5
最大亮度:
2.5
卫星平台:
Starlink V1.0
覆盖范围:
全球
运营商:
太空探索技术公司
运营商所在国:
美国
制造商(研发单位):
太空探索技术公司
制造商所在国:
美国
使用方式:
暂无
卫星简介
星链(Starlink)计划是由太空探索技术公司(SpaceX)提出的一个巨型低轨卫星互联网星座项目,计划在2019年至2024年间在太空搭建由约1.2万颗卫星组成的“星链”网络,其中1584颗将部署在地球上空550千米处的近地轨道,并从2020年开始工作。该卫星仍在工作。